Location: ČR
(50.0000°N, 15.0000°E)
Time: 02:27:29
(UTC+00:00)

Courier 1B Rocket - Pass Details

Date: 31 October 2021
Orbit: 920 x 1202 km, 28.3° (Epoch: 27 November)

Event Time Altitude Azimuth Distance (km) Brightness Sun altitude
Rises 13:09:16 0° 229° (SW) 3,898 9.7 18.2°
Reaches altitude 10° 13:14:52 10° 195° (SSW) 2,856 8.9 17.6°
Maximum altitude 13:16:21 11° 182° (S) 2,778 8.4 17.5°
Drops below altitude 10° 13:17:50 10° 169° (S) 2,810 8.1 17.3°
Sets 13:23:08 0° 134° (SE) 3,680 8.1 16.8°
